Regional Weather Roundup
Issued by NWS

Home | Current Version | Previous Version | Text Only | Print | Product List | Glossary On
Versions: 1 2 3 4 5 6 7 8 9 10 11 12 13 14 15 16 17 18 19 20 21 22 23 24 25 26 27 28 29 30 31 32 33 34 35 36 37 38 39 40 41 42 43 44 45 46 47 48 49 50
000
ASUS44 KFWD 150615
RWRTX
NORTH TEXAS HOURLY WEATHER ROUNDUP
NATIONAL WEATHER SERVICE FORT WORTH TX
100 AM CDT MON SEP 15 2014

NOTE: "FAIR" INDICATES FEW OR NO CLOUDS BELOW 12,000 FEET WITH NO
SIGNIFICANT WEATHER AND/OR OBSTRUCTIONS TO VISIBILITY.

TXZ118-119-150700-
DALLAS/FORT WORTH METROPLEX

CITY           SKY/WX    TMP DP  RH WIND       PRES   REMARKS
DFW AIRPORT    CLOUDY    73  64  73 CALM      30.13F
6HR MIN TEMP:  72; 6HR MAX TEMP:  77;

DALLAS LOVE    CLOUDY    73  64  73 SE3       30.13F
6HR MIN TEMP:  72; 6HR MAX TEMP:  78;

FTW MEACHAM    CLOUDY    73  64  73 CALM      30.13S
6HR MIN TEMP:  72; 6HR MAX TEMP:  77;

DAL-EXECUTIVE  CLOUDY    72  64  76 CALM      30.13S
6HR MIN TEMP:  71; 6HR MAX TEMP:  80;

FTW-ALLIANCE   CLOUDY    69  63  81 CALM      30.13S
6HR MIN TEMP:  65; 6HR MAX TEMP:  75;

FTW-NAS-JRB    CLOUDY    77  63  61 SE3       30.17F
6HR MIN TEMP:  76; 6HR MAX TEMP:  81;

FTW-SPINKS     CLOUDY    69  64  84 CALM      30.15F
6HR MIN TEMP:  68; 6HR MAX TEMP:  78;

ARLINGTON      CLOUDY    70  65  84 SE3       30.13F
6HR MIN TEMP:  69; 6HR MAX TEMP:  78;

GRAND PRAIRIE  CLOUDY    73  63  71 CALM      30.15S
6HR MIN TEMP:  73; 6HR MAX TEMP:  78;

ADDISON        CLOUDY    73  63  69 E3        30.15S
6HR MIN TEMP:  73; 6HR MAX TEMP:  77;

MESQUITE       CLOUDY    69  64  83 CALM      30.13F
6HR MIN TEMP:  69; 6HR MAX TEMP:  79;

LANCASTER      CLOUDY    69  62  78 CALM      30.14F
6HR MIN TEMP:  68; 6HR MAX TEMP:  78;

$$

TXZ091>094-102>105-117-120-121-131>134-150700-
NORTH CENTRAL TEXAS

CITY           SKY/WX    TMP DP  RH WIND       PRES   REMARKS
SHRMAN/DENISON MOCLDY    71  64  78 SE3       30.15S
6HR MIN TEMP:  71; 6HR MAX TEMP:  75;

GAINESVILLE    MOCLDY    67  64  92 SE5       30.16S
6HR MIN TEMP:  67; 6HR MAX TEMP:  73;

BOWIE          MOCLDY    67  64  91 SE3       30.15R
6HR MIN TEMP:  66; 6HR MAX TEMP:  74;

BRIDGEPORT     CLOUDY    69  62  76 SE5       30.15F
6HR MIN TEMP:  69; 6HR MAX TEMP:  76;

DECATUR        CLOUDY    69  62  79 SE3       30.14F
6HR MIN TEMP:  68; 6HR MAX TEMP:  74;

DENTON         CLOUDY    69  63  81 CALM      30.13F
6HR MIN TEMP:  67; 6HR MAX TEMP:  75;

MCKINNEY       MOCLDY    70  65  84 CALM      30.14S
6HR MIN TEMP:  69; 6HR MAX TEMP:  77;

GREENVILLE     MOCLDY    68  63  83 CALM      30.14F
ROCKWALL       MOCLDY    71  65  83 E5        30.13S
6HR MIN TEMP:  70; 6HR MAX TEMP:  77;

TERRELL        MOCLDY    73  67  81 CALM      30.14S
6HR MIN TEMP:  71; 6HR MAX TEMP:  82;

WAXAHACHIE     CLOUDY    69  63  79 CALM      30.15S
6HR MIN TEMP:  69; 6HR MAX TEMP:  78;

GRANBURY       CLOUDY    74  64  70 S3        30.15S
6HR MIN TEMP:  73; 6HR MAX TEMP:  80;

$$

TXZ083>090-098>101-113>116-127>130-139>142-154-155-150700-
WESTERN NORTH TEXAS

CITY           SKY/WX    TMP DP  RH WIND       PRES   REMARKS
WICHITA FALLS  LGT RAIN  69  65  86 S8        30.12F
6HR MIN TEMP:  69; 6HR MAX TEMP:  77; 6HR PCP:  0.01;

WF-KICKAPOO    LGT RAIN  69  65  88 S5        30.14S
6HR MIN TEMP:  69; 6HR MAX TEMP:  78;

VERNON         CLOUDY    71  65  82 S3        30.13S
6HR MIN TEMP:  71; 6HR MAX TEMP:  75;

ABILENE        CLOUDY    74  64  71 CALM      30.16F
6HR MIN TEMP:  73; 6HR MAX TEMP:  81; 6HR PCP: TRACE;

ABILENE-DYESS  CLOUDY    71  64  77 S2        30.15F
6HR MIN TEMP:  71; 6HR MAX TEMP:  80; 6HR PCP: TRACE;

BRECKENRIDGE   CLOUDY    74  62  65 S7        30.14S
6HR MIN TEMP:  74; 6HR MAX TEMP:  79;

GRAHAM         CLOUDY    72  62  71 E3        30.12F
6HR MIN TEMP:  72; 6HR MAX TEMP:  79;

MINERAL WELLS  CLOUDY    71  63  75 SE9       30.13S
6HR MIN TEMP:  70; 6HR MAX TEMP:  78;

STEPHENVILLE   CLOUDY    70  63  76 CALM      30.19S
6HR MIN TEMP:  70; 6HR MAX TEMP:  80;

COMANCHE         N/A     71  63  74 S6        30.17S
6HR MIN TEMP:  71; 6HR MAX TEMP:  78;

BROWNWOOD      CLOUDY    73  63  68 SE5       30.17S
COLEMAN        CLOUDY    74  62  66 S9        30.17S
6HR MIN TEMP:  73; 6HR MAX TEMP:  80;

BRADY          CLEAR     72  64  78 CALM      30.17S
$$

TXZ143>147-156>162-174-175-150700-
CENTRAL TEXAS

CITY           SKY/WX    TMP DP  RH WIND       PRES   REMARKS
WACO           CLOUDY    70  66  87 N3        30.13S
6HR MIN TEMP:  69; 6HR MAX TEMP:  77;

WACO-MCGREGOR  CLOUDY    70  59  68 CALM      30.15S
6HR MIN TEMP:  70; 6HR MAX TEMP:  75;

HILLSBORO      CLOUDY    72  63  73 E6        30.13F
6HR MIN TEMP:  72; 6HR MAX TEMP:  79;

CORSICANA      CLOUDY    73  67  81 NE6       30.14S
6HR MIN TEMP:  72; 6HR MAX TEMP:  80;

MEXIA          CLOUDY    70  65  84 N3        30.12S
6HR MIN TEMP:  70; 6HR MAX TEMP:  76;

HEARNE           N/A     70  68  93 CALM      30.12S
6HR MIN TEMP:  70; 6HR MAX TEMP:  77;

CAMERON        MOCLDY    70  67  90 W3        30.12S
6HR MIN TEMP:  70; 6HR MAX TEMP:  79;

TEMPLE         CLOUDY    70  61  73 NE3       30.13S
6HR MIN TEMP:  70; 6HR MAX TEMP:  79;

KILLEEN        CLOUDY    72  64  78 S3        30.15S
KILLEEN-SKYLRK CLOUDY    72  61  68 CALM      30.14F
6HR MIN TEMP:  72; 6HR MAX TEMP:  79;

FORT HOOD      CLOUDY    74  25  16 CALM      30.14F
6HR MIN TEMP:  73; 6HR MAX TEMP:  81;

GATESVILLE     CLOUDY    70  64  83 CALM      30.17S
HAMILTON       CLOUDY    70  63  78 S6        30.17S
6HR MIN TEMP:  70; 6HR MAX TEMP:  78;

LAMPASAS       MOCLDY    71  65  81 CALM      30.15F
6HR MIN TEMP:  71; 6HR MAX TEMP:  79;

$$

TXZ095>097-106>112-122>126-135>138-148>153-164>167-150700-
EAST TEXAS

CITY           SKY/WX    TMP DP  RH WIND       PRES   REMARKS
PARIS          MOCLDY    68  61  77 E6        30.15S
6HR MIN TEMP:  68; 6HR MAX TEMP:  75;

SULPHUR SPRNGS CLOUDY    69  65  88 E5        30.16S
6HR MIN TEMP:  69; 6HR MAX TEMP:  78;

MOUNT PLEASANT MOCLDY    69  64  84 E3        30.15F
6HR MIN TEMP:  69; 6HR MAX TEMP:  78;

GILMER         MOCLDY    72  66  83 E3        30.15F
MINEOLA        MOCLDY    68  66  94 CALM      30.14F
TYLER          PTCLDY    71  66  84 NE3       30.13F
6HR MIN TEMP:  71; 6HR MAX TEMP:  81;

LONGVIEW       PTCLDY    71  65  81 SE5       30.13F
6HR MIN TEMP:  71; 6HR MAX TEMP:  82;

MARSHALL       PTCLDY    69  65  88 CALM      30.16F
6HR MIN TEMP:  69; 6HR MAX TEMP:  82;

ATHENS         PTCLDY    66  64  94 CALM      30.12S
PALESTINE      CLEAR     71  67  88 NE3       30.13F
JACKSONVILLE   CLEAR     72  67  84 E3        30.15F
HENDERSON      CLEAR     70  66  87 E6        30.14F
6HR MIN TEMP:  68; 6HR MAX TEMP:  80;

NACOGDOCHES    CLEAR     70  66  88 E3        30.14S
6HR MIN TEMP:  70; 6HR MAX TEMP:  81;

LUFKIN         CLEAR     73  68  84 CALM      30.12F
6HR MIN TEMP:  73; 6HR MAX TEMP:  83;

$$

SUPPLEMENTAL OBSERVATIONS (CENTRAL)

CITY           SKY/WX    TMP DP  RH WIND       PRES   REMARKS
LAKE TEXOMA      N/A     70  64  83 SE1         N/A
PAT MAYSE LAKE   N/A     70  64  83 E6          N/A
GREENVILLE       N/A     70  63  78 E5          N/A
CEDAR HILL       N/A     70  63  78 SE2         N/A
ATHENS           N/A     70  64  83 CALM        N/A
LAKE LIMESTONE   N/A     72  66  83 NE2         N/A
MCGREGOR         N/A     70  64  83 CALM        N/A



USA.gov is the U.S. government's official web portal to all federal, state and local government web resources and services.